#timestamp,LO_Frequency,Hit,StdDev 
1626746415.7,286047003.6,N
1626746435.6,286047007.0,Y
1626746455.4,286047005.4,P
1626746475.2,286047003.5,N
1626746495.1,286047003.7,N
1626746496.0,286047003.7,Y
1626746515.8,286047001.1,P
1626746535.7,286046998.4,N
1626746555.5,286046996.7,N
1626746575.3,286046996.7,N
1626746595.2,286046998.5,N
1626746615.0,286047001.5,N
1626746615.9,286047001.5,N
1626746635.7,286047001.8,N
1626746655.6,286047002.3,N
1626746675.4,286047000.0,N
1626746695.3,286047000.2,N
1626746715.1,286047003.6,N
1626746716.0,286047003.6,N
1626746735.8,286047003.7,N
1626746755.7,286047003.8,N
1626746775.5,286047003.9,N
1626746795.3,286047004.5,N
1626746815.2,286047007.1,N
1626746835.0,286047005.9,N
1626746835.9,286047005.9,N
1626746855.8,286047004.4,N
1626746875.6,286047003.8,N
1626746895.4,286047002.7,N
1626746915.3,286047001.2,N
1626746935.1,286047000.8,N
1626746955.8,286047000.0,N
1626746975.7,286046999.9,N
1626746995.5,286047000.0,N
1626747015.3,286047000.2,N
1626747035.2,286047001.8,N
1626747055.0,286047004.7,N
1626747055.9,286047004.7,N
1626747075.8,286047005.0,N
1626747095.6,286047006.4,N
1626747115.4,286047008.4,Y
1626747135.3,286047005.2,P
1626747155.1,286047005.5,P
1626747175.8,286047004.9,P
1626747195.7,286047005.0,Y
1626747215.5,286047001.9,P
1626747235.4,286047001.6,N
1626747255.2,286047003.1,N
1626747275.0,286047003.0,N
1626747275.9,286047003.0,N
1626747295.8,286047006.4,Y
1626747315.6,286047005.1,P
1626747335.4,286047005.9,P
1626747355.3,286047005.3,P
1626747375.1,286047005.2,Y
1626747395.9,286047002.4,P
1626747415.7,286047002.4,N
1626747435.5,286047000.1,N
1626747455.4,286047000.8,N
1626747475.2,286047000.3,N
1626747495.1,286046999.3,N
1626747496.0,286046999.3,N
1626747515.8,286047000.9,N
1626747535.6,286046999.0,N
1626747555.5,286046996.8,N
1626747575.3,286046995.5,N
1626747595.1,286046996.3,N
1626747615.9,286046995.9,N
1626747635.7,286046994.0,N
1626747655.6,286046992.2,N
1626747675.4,286046991.8,N
1626747695.2,286046995.5,N
1626747715.1,286046998.9,N
1626747716.0,286046998.9,N
1626747735.8,286047001.8,N
1626747755.6,286047004.1,N
1626747775.5,286047004.4,N
1626747795.3,286047005.4,N
1626747815.1,286047010.7,N
1626747835.9,286047011.0,N
1626747855.7,286047013.3,N
1626747875.6,286047013.7,N
1626747895.4,286047013.0,N
1626747915.2,286047016.0,N
1626747935.1,286047017.3,N
1626747936.0,286047017.3,N
1626747955.8,286047021.8,N
1626747975.7,286047021.8,N
1626747995.5,286047022.4,N
1626748015.3,286047023.9,N
1626748035.2,286047026.4,N
1626748055.9,286047028.0,N
1626748075.7,286047028.3,N
1626748095.6,286047024.8,N
1626748115.4,286047021.2,N
1626748135.2,286047021.5,N
1626748155.1,286047018.9,N
1626748156.0,286047018.9,N
1626748175.8,286047020.5,N
1626748195.7,286047024.8,N
1626748215.5,286047029.6,N
1626748235.3,286047034.1,Y
1626748255.2,286047023.6,P
1626748275.0,286047024.5,P
1626748275.9,286047024.5,P
1626748295.8,286047024.2,Y
1626748315.6,286047005.2,P
1626748335.4,286047008.7,N
1626748355.3,286047013.6,N
1626748375.1,286047016.0,N
1626748395.8,286047022.0,Y
1626748415.7,286047009.4,P
1626748435.5,286047012.0,P
1626748455.4,286047011.7,P
1626748475.2,286047011.0,Y
1626748495.0,286047002.0,P
1626748495.9,286047002.0,N
1626748515.8,286047000.4,N
1626748535.6,286046998.6,N
1626748555.4,286047001.9,N
1626748575.3,286047004.0,N
1626748595.1,286047001.9,N
1626748615.9,286047005.5,N
1626748635.7,286047006.3,N
1626748655.5,286047003.5,N
1626748675.4,286047004.9,N
1626748695.2,286047005.6,N
1626748715.0,286047001.8,N
1626748715.9,286047001.8,N
1626748735.8,286046999.9,N
1626748755.6,286046999.1,N
1626748775.5,286046995.7,N
1626748795.3,286046996.3,N
1626748815.1,286046996.4,N
1626748835.9,286046992.2,N
1626748855.7,286046989.1,N
1626748875.6,286046988.1,N
1626748895.4,286046984.6,N
1626748915.2,286046983.5,N
1626748935.1,286046980.3,N
1626748936.0,286046980.3,N
1626748955.8,286046976.0,N
1626748975.6,286046975.2,N
1626748995.5,286046974.1,N
1626749015.3,286046973.0,N
1626749035.1,286046973.9,N
1626749055.9,286046975.4,N
1626749075.7,286046973.1,N
1626749095.6,286046973.2,N
1626749115.4,286046970.0,N
1626749135.2,286046968.6,N
1626749155.1,286046966.3,N
1626749156.0,286046966.3,N
1626749175.8,286046964.6,N
1626749195.6,286046963.9,N
1626749215.5,286046961.7,N
1626749235.3,286046960.4,Y
1626749255.2,286046977.1,P
1626749275.9,286046975.4,P
1626749295.7,286046972.6,P
1626749315.6,286046971.5,Y
1626749335.4,286046993.5,P
1626749355.2,286046993.4,N
1626749375.1,286046995.7,N
1626749376.0,286046995.7,N
1626749395.8,286046996.5,N
1626749415.7,286046996.9,N
1626749435.5,286046998.3,N
1626749455.3,286047001.2,N
1626749475.2,286047002.7,N
1626749495.0,286047001.7,N
1626749495.9,286047001.7,N
1626749515.8,286047002.9,N
1626749535.6,286047002.3,N
1626749555.4,286047003.5,N
1626749575.3,286047003.6,N
1626749595.1,286047000.9,N
1626749596.0,286047000.9,N
1626749615.8,286046999.8,N
1626749635.7,286046999.8,N
1626749655.5,286047003.4,N
1626749675.3,286047005.5,N
1626749695.2,286047006.7,N
1626749715.0,286047005.3,N
1626749715.9,286047005.3,N
1626749735.8,286047003.6,N
1626749755.6,286047003.0,N
1626749775.4,286047001.8,N
1626749795.3,286047000.2,N
1626749815.1,286047002.2,N
1626749835.9,286047000.9,N
1626749855.7,286046999.1,N
1626749875.5,286046997.4,N
1626749895.4,286046999.9,N
1626749915.2,286047001.4,N
1626749935.0,286047004.1,N
1626749936.0,286047004.1,N
1626749955.8,286047003.5,N
1626749975.6,286047005.7,N
1626749995.5,286047006.0,N
